RH
38 24 24 24 20 18 15 12 11 12 13 12 11 10 9 7 6 5 4 4 7 10 12 11 13 15 15 15 14 13 16 21 46 91 84 98 97 87
29 23 24 20 18 15 12 11 10 10 12 11 10 9 8 7 5 6 8 12 12 13 14 20 27 30 31 32 31 28 24 22 23 39 77 94 58 46
24 24 20 18 14 13 12 10 11 11 9 7 8 8 6 5 7 14 20 16 14 25 40 48 51 49 49 51 48 49 50 49 48 50 53 93 100 97
24 20 18 15 13 12 11 12 12 12 11 6 7 5 5 8 15 21 18 25 44 44 51 57 53 52 58 56 59 61 55 56 56 56 56 56 82 100
21 18 15 13 12 12 14 13 13 12 10 6 3 4 7 14 19 19 38 51 53 54 58 65 58 64 63 65 68 65 61 61 57 59 58 57 58 61
18 16 14 12 14 14 13 13 13 9 6 4 8 10 12 21 28 49 50 56 55 60 54 51 52 58 62 69 69 68 71 72 73 74 71 69 66 62
17 14 13 15 14 14 14 11 7 5 6 15 17 19 23 32 55 58 57 56 48 61 58 39 49 58 66 68 72 77 73 74 77 78 79 76 73 69
13 14 14 12 12 10 6 5 5 8 15 20 22 29 42 60 65 63 63 56 45 55 71 38 65 59 72 73 81 73 74 80 85 87 84 79 74 71
15 14 13 12 6 4 4 5 7 16 23 27 31 55 67 74 78 70 63 66 60 63 80 44 65 60 72 84 86 80 89 90 89 91 94 89 77 71
14 14 8 4 4 4 4 6 15 21 30 42 65 70 80 83 86 84 76 70 58 69 94 64 64 64 65 94 96 97 100 98 98 98 97 97 98 94
12 5 4 4 5 5 9 16 18 27 51 69 73 82 85 89 93 90 84 81 75 68 87 79 62 65 63 80 95 88 85 94 96 97 98 100 100 98
5 4 5 5 6 14 20 21 26 55 66 68 72 80 86 85 90 97 100 92 87 70 88 74 64 78 52 62 70 83 79 81 82 91 98 100 100 98
4 5 6 6 13 20 23 34 63 68 68 72 75 80 82 86 90 98 100 100 94 82 92 88 70 76 84 68 60 71 73 65 75 89 99 97 97 99
5 5 6 11 19 22 36 70 73 72 74 76 77 82 83 84 87 95 100 98 97 94 86 96 82 87 84 74 68 67 66 73 89 94 94 95 97 99
4 5 9 18 22 35 73 75 77 82 80 80 82 84 83 84 88 90 89 92 87 97 97 97 92 93 94 90 91 72 71 73 96 96 95 96 97 97
5 6 16 21 31 74 78 84 88 87 86 86 85 84 85 86 90 97 88 88 84 84 98 98 90 94 95 95 93 85 80 89 93 97 93 98 100 99
6 12 20 25 67 76 82 88 88 89 89 92 91 88 92 93 95 99 96 88 88 86 80 85 90 96 99 99 92 85 78 89 96 97 95 92 98 98
9 19 23 48 77 81 84 85 91 90 92 93 96 98 96 96 95 94 97 95 89 87 87 85 79 78 80 80 94 85 87 94 96 98 99 96 97 99
17 22 31 76 82 86 85 87 89 93 92 95 97 99 96 95 99 96 95 93 90 91 92 88 92 91 78 70 76 97 86 91 90 98 97 97 98 96
22 26 68 83 87 87 88 90 92 93 96 98 98 97 98 99 99 98 98 96 93 89 89 95 96 92 94 91 73 86 96 91 95 96 95 98 98 93
23 58 84 88 88 88 90 92 97 98 98 97 98 97 98 100 99 100 97 99 99 96 91 95 92 97 99 94 86 90 96 100 100 96 95 95 99 83
40 82 89 89 90 90 90 91 96 98 97 97 98 98 98 99 98 96 97 98 95 94 90 93 92 95 97 91 88 91 91 92 100 95 97 95 97 95
74 89 89 91 92 91 91 94 96 98 98 98 98 99 99 98 98 98 98 98 94 94 93 89 98 100 100 96 92 90 91 91 88 93 96 99 100 97
Wind_Speed
44 43 43 44 44 45 46 48 52 57 59 59 60 62 63 64 65 65 65 62 57 54 52 51 50 49 48 47 49 52 53 55 51 44 48 45 46 56
45 45 45 45 45 46 48 50 52 56 63 60 61 62 62 63 62 60 57 55 50 46 43 40 40 43 43 43 43 44 46 48 50 51 50 52 58 60
46 46 45 46 46 48 50 52 54 56 62 62 61 60 60 59 56 53 51 49 43 39 38 36 37 38 40 39 40 41 43 43 44 46 48 45 44 46
46 46 46 47 48 50 52 53 55 55 59 64 61 59 57 53 51 50 47 43 40 38 31 33 35 36 38 39 40 40 41 41 42 44 44 47 47 44
46 45 46 48 49 51 53 54 56 57 56 59 60 54 52 50 48 45 44 42 36 36 32 34 35 36 36 38 40 41 42 43 45 45 43 43 46 49
45 46 48 49 51 52 53 55 56 56 54 53 51 51 50 46 44 44 43 35 37 38 32 37 36 35 36 36 37 39 42 44 46 45 46 44 43 42
45 47 49 50 51 52 54 54 53 51 48 46 47 48 47 42 42 38 39 39 34 42 39 32 35 32 33 35 37 40 43 44 44 44 45 44 43 42
47 48 50 52 52 53 52 49 47 45 43 43 45 46 41 39 36 37 40 41 44 36 43 32 33 30 32 31 32 34 33 31 29 29 31 33 37 40
48 49 51 52 52 51 48 45 43 40 39 40 41 39 39 33 37 37 39 42 45 40 40 36 31 32 28 23 26 27 27 27 28 28 26 24 25 27
48 49 51 50 48 46 45 43 42 39 37 35 36 34 32 34 36 39 42 43 39 37 39 41 32 32 21 16 19 20 21 24 27 29 31 30 27 26
49 48 47 46 45 42 42 42 41 36 33 31 30 30 30 32 36 41 40 41 40 36 30 39 33 35 23 11 16 20 22 26 29 31 31 31 33 33
48 46 45 43 40 38 39 39 37 33 31 26 28 29 32 34 36 37 36 37 39 38 31 38 36 37 31 15 15 20 25 27 33 35 36 37 37 37
46 44 41 39 37 37 36 34 33 32 28 29 29 31 34 35 33 31 32 35 37 37 33 38 38 35 35 35 22 23 29 33 36 38 39 41 41 40
43 40 38 36 36 34 32 30 28 29 30 31 33 32 32 30 27 28 30 32 34 35 34 33 38 37 36 32 34 32 32 35 39 41 41 36 29 28
39 36 35 34 32 30 28 26 28 29 31 32 30 29 29 28 28 31 31 32 31 28 29 31 35 35 34 34 40 37 41 39 37 37 34 26 25 25
37 34 32 30 29 26 24 26 28 31 31 30 29 29 30 31 31 33 33 32 30 23 22 28 31 32 31 30 34 38 37 39 37 33 26 21 22 24
34 31 31 27 24 23 24 26 28 28 28 28 29 31 32 33 31 31 30 29 29 28 25 25 27 28 27 28 30 31 34 34 34 29 28 26 18 26
31 31 28 26 23 23 24 24 25 26 26 28 30 32 34 33 30 27 28 27 26 26 27 29 28 24 21 19 25 31 30 35 31 26 23 27 23 29
29 28 26 23 23 24 26 25 23 23 25 27 30 32 31 30 30 28 27 26 24 25 25 28 28 28 27 23 11 19 30 32 30 23 21 21 28 26
27 24 22 22 23 24 23 23 22 23 25 28 29 30 29 30 29 28 27 27 27 26 25 26 25 25 27 27 25 20 23 31 31 26 15 14 26 16
22 21 20 22 22 23 23 22 22 24 26 28 28 28 27 28 27 28 27 26 27 26 25 25 23 23 24 24 23 20 21 23 25 27 21 18 22 27
19 18 19 21 21 22 22 21 22 24 26 27 26 25 24 25 26 26 26 27 25 25 24 24 23 22 22 23 21 22 22 20 21 20 21 21 24 28
16 17 18 19 20 21 21 22 24 25 26 26 25 24 24 23 23 23 25 25 24 24 25 22 20 22 22 22 22 21 22 22 21 18 17 20 22 20
Wind_Direction
314 313 312 312 311 309 307 308 310 311 309 311 312 312 310 309 308 307 305 304 305 305 302 299 296 295 289 283 279 276 274 272 269 269 263 262 256 250
312 312 312 311 310 309 310 310 309 309 308 311 311 310 310 309 308 307 307 307 308 306 300 301 298 295 294 290 287 283 279 275 272 269 266 265 261 257
312 312 311 310 311 310 310 310 309 309 308 310 310 311 308 308 309 308 307 305 304 301 302 300 296 297 295 295 291 287 285 282 278 274 270 269 268 264
311 311 311 311 311 311 310 309 308 308 309 311 311 309 307 308 310 308 307 309 308 303 305 301 299 297 298 296 293 291 290 288 283 278 275 269 265 264
310 310 310 311 312 311 310 310 310 311 311 309 309 310 309 310 310 309 307 310 308 306 312 306 300 301 300 295 295 294 291 285 281 279 278 275 269 263
309 310 312 313 312 311 312 313 313 312 311 311 311 310 310 314 308 309 307 311 311 310 313 306 302 303 299 305 302 296 290 287 285 282 279 277 275 271
312 313 313 312 312 313 314 313 311 310 312 311 308 307 310 309 309 310 309 312 313 312 316 306 309 308 313 309 305 300 299 300 296 290 284 279 275 272
314 313 312 313 315 315 313 310 310 312 311 308 306 306 309 309 308 310 311 313 313 320 320 317 315 315 317 311 305 308 317 321 319 309 298 288 280 273
313 314 315 316 315 314 312 313 311 310 310 307 306 307 306 308 308 311 313 313 314 322 319 315 318 320 320 311 300 311 322 329 329 327 321 310 291 277
316 317 317 316 316 316 315 313 312 313 310 307 304 305 307 310 310 312 314 314 317 320 321 313 320 318 316 304 303 312 318 326 329 328 323 318 308 294
318 318 317 318 320 318 312 312 312 313 309 307 306 307 309 313 314 314 317 315 316 319 325 310 320 320 316 305 294 304 316 323 324 322 317 312 308 301
320 321 321 320 318 315 314 313 313 314 314 310 311 314 315 317 317 314 314 314 316 319 330 317 321 324 313 314 308 308 311 317 318 316 312 308 299 294
322 322 321 320 319 317 315 315 315 316 319 319 318 318 318 317 316 314 313 313 314 317 322 315 318 320 314 314 314 319 318 318 318 316 312 307 299 288
321 323 321 320 319 318 316 317 318 319 321 323 322 322 321 321 318 313 314 312 311 315 314 312 313 316 314 315 315 323 322 323 321 321 318 319 313 292
323 323 321 321 319 320 319 320 321 322 322 322 325 327 326 326 323 317 315 315 316 316 312 311 312 312 312 313 314 324 327 327 326 331 329 333 329 316
324 323 322 323 322 323 323 323 322 322 325 326 326 326 325 324 326 322 321 320 321 321 319 313 313 313 312 311 314 321 323 323 335 338 332 327 323 320
323 323 324 326 326 325 325 323 322 323 325 325 325 325 326 327 327 324 322 323 327 327 326 320 319 313 309 311 310 312 321 331 338 341 338 331 331 325
324 324 327 328 327 325 323 325 326 326 327 328 328 327 327 329 330 331 330 330 332 333 330 327 323 321 317 306 318 323 327 333 344 344 341 334 336 333
324 325 326 325 325 326 328 330 330 328 328 327 330 331 331 334 335 335 335 336 338 336 333 330 332 331 330 331 336 327 328 338 349 358 354 351 342 339
325 323 323 325 326 328 329 330 330 328 328 331 334 336 335 334 338 338 339 340 341 341 338 335 335 335 336 337 340 348 337 341 349 360 5 0 354 341
323 323 325 327 328 330 331 333 332 331 333 334 335 336 337 337 340 339 341 343 343 340 339 341 342 340 341 340 335 340 346 348 352 355 5 10 15 27
326 326 327 328 331 333 335 334 334 334 335 336 337 337 338 338 340 342 344 345 345 341 340 347 345 347 348 347 348 345 352 5 1 359 1 5 11 23
329 330 330 333 336 338 338 337 336 337 338 339 340 339 340 340 341 345 348 348 346 345 346 352 351 356 356 355 353 353 359 6 10 15 22 21 20 14